User: anonymous   Login
Location: Ahstedt
(52.2048°N, 10.1060°E)
Time: 05:31:17
(UTC+00:00)
Language:

ACS3 Solar Sail - Orbit

View from above orbital plane
View from above orbital plane
View from above satellite
View from above satellite

Ground track
Ground track

The orbit is defined by the following mean orbital elements,

1 59588U          26071.73799039 +.00000000 +00000-0 +18958-1 0 00003
2 59588  97.2052  12.1643 0062273  69.1869 291.5951 13.89757757    09
Epoch (UTC): 12 March 2026 17:42:42
Eccentricity: 0.0062273
inclination: 97.2052°
perigee height: 884 km
apogee height: 975 km
right ascension of ascending node: 12.1643°
argument of perigee: 69.1869°
revolutions per day: 13.89757757
mean anomaly at epoch: 291.5951°

The dashed part of the orbit path shows where the satellite is in the earth's shadow,  

DLR